| time (UTC) | temp F | wind direction | speed MPH | gust MPH | rain 1hr in | rain 24hr in | rain mn in | humidity % | barometer mb |
| 20260507105038 | 65 | 174 | 1.0 | 10.0 | 0.00 | 2.36 | 0.00 | 66 | 1014.3 |
| 20260507104535 | 66 | 137 | 5.0 | 8.0 | 0.00 | 2.36 | 0.00 | 65 | 1014.2 |
| 20260507104044 | 66 | 106 | 1.0 | 9.0 | 0.00 | 2.36 | 0.00 | 66 | 1014.3 |
| 20260507103549 | 65 | 152 | 5.0 | 9.0 | 0.00 | 2.36 | 0.00 | 66 | 1014.3 |
| 20260507103039 | 65 | 150 | 2.0 | 7.0 | 0.00 | 2.36 | 0.00 | 65 | 1014.4 |
| 20260507102534 | 65 | 354 | 0.0 | 10.0 | 0.00 | 2.36 | 0.00 | 62 | 1014.5 |
| 20260507102044 | 65 | 152 | 4.0 | 10.0 | 0.00 | 2.36 | 0.00 | 65 | 1014.5 |
| 20260507101546 | 65 | 127 | 0.0 | 7.0 | 0.00 | 2.36 | 0.00 | 67 | 1014.5 |
| 20260507101036 | 65 | 135 | 1.0 | 7.0 | 0.00 | 2.36 | 0.00 | 67 | 1014.5 |
| 20260507100554 | 65 | 135 | 5.0 | 7.0 | 0.00 | 2.36 | 0.00 | 66 | 1014.5 |
| 20260507100042 | 65 | 125 | 1.0 | 5.0 | 0.00 | 2.36 | 0.00 | 67 | 1014.5 |
| 20260507095546 | 64 | 147 | 3.0 | 5.0 | 0.00 | 2.40 | 0.00 | 68 | 1014.5 |
| 20260507095056 | 64 | 128 | 0.0 | 4.0 | 0.00 | 2.40 | 0.00 | 70 | 1014.5 |
| 20260507094531 | 63 | 133 | 2.0 | 9.0 | 0.00 | 2.40 | 0.00 | 70 | 1014.5 |
| 20260507094040 | 63 | 155 | 2.0 | 9.0 | 0.00 | 2.40 | 0.00 | 67 | 1014.5 |
| 20260507093543 | 64 | 146 | 4.0 | 8.0 | 0.00 | 2.40 | 0.00 | 67 | 1014.5 |
| 20260507093031 | 63 | 71 | 0.0 | 8.0 | 0.00 | 2.40 | 0.00 | 67 | 1014.5 |
| 20260507092535 | 63 | 79 | 0.0 | 8.0 | 0.00 | 2.40 | 0.00 | 66 | 1014.5 |
| 20260507092042 | 63 | 160 | 3.0 | 6.0 | 0.00 | 2.40 | 0.00 | 69 | 1014.5 |
| 20260507091543 | 63 | 139 | 0.0 | 4.0 | 0.00 | 2.40 | 0.00 | 70 | 1014.5 |
| 20260507091034 | 62 | 120 | 0.0 | 7.0 | 0.00 | 2.40 | 0.00 | 67 | 1014.5 |
| 20260507090537 | 62 | 167 | 0.0 | 7.0 | 0.00 | 2.40 | 0.00 | 68 | 1014.4 |
| 20260507090101 | 62 | 168 | 4.0 | 7.0 | 0.00 | 2.40 | 0.00 | 67 | 1014.4 |
| 20260507085543 | 62 | 180 | 2.0 | 7.0 | 0.00 | 3.54 | 0.00 | 69 | 1014.3 |
| 20260507085034 | 62 | 124 | 0.0 | 9.0 | 0.00 | 3.54 | 0.00 | 70 | 1014.4 |
| 20260507084537 | 62 | 170 | 3.0 | 9.0 | 0.00 | 3.54 | 0.00 | 70 | 1014.4 |
| 20260507084041 | 62 | 133 | 0.0 | 7.0 | 0.00 | 3.54 | 0.00 | 72 | 1014.4 |
| 20260507083602 | 61 | 145 | 2.0 | 7.0 | 0.00 | 3.54 | 0.00 | 69 | 1014.4 |
| 20260507083048 | 61 | 175 | 0.0 | 6.0 | 0.00 | 3.54 | 0.00 | 71 | 1014.3 |
| 20260507082550 | 61 | 135 | 3.0 | 4.0 | 0.00 | 3.54 | 0.00 | 71 | 1014.3 |
| 20260507082041 | 60 | 116 | 2.0 | 6.0 | 0.00 | 3.54 | 0.00 | 70 | 1014.3 |
| 20260507081543 | 60 | 154 | 0.0 | 6.0 | 0.00 | 3.54 | 0.00 | 69 | 1014.3 |
| 20260507081101 | 60 | 125 | 0.0 | 3.0 | 0.00 | 3.54 | 0.00 | 70 | 1014.3 |
| 20260507080541 | 59 | 73 | 0.0 | 3.0 | 0.00 | 3.54 | 0.00 | 73 | 1014.3 |
| 20260507080032 | 59 | 140 | 1.0 | 6.0 | 0.00 | 3.54 | 0.00 | 74 | 1014.3 |
| 20260507075531 | 58 | 105 | 0.0 | 6.0 | 0.00 | 4.84 | 0.00 | 76 | 1014.3 |
| 20260507075044 | 58 | 148 | 2.0 | 5.0 | 0.00 | 4.84 | 0.00 | 76 | 1014.3 |
| 20260507074547 | 58 | 139 | 1.0 | 4.0 | 0.00 | 4.84 | 0.00 | 79 | 1014.3 |
| 20260507074042 | 58 | 139 | 2.0 | 4.0 | 0.00 | 4.84 | 0.00 | 80 | 1014.2 |
| 20260507073546 | 58 | 139 | 1.0 | 3.0 | 0.00 | 4.84 | 0.00 | 82 | 1014.3 |
| 20260507073104 | 58 | 139 | 0.0 | 0.0 | 0.00 | 4.84 | 0.00 | 81 | 1014.3 |
| 20260507072547 | 57 | 137 | 0.0 | 0.0 | 0.00 | 4.84 | 0.00 | 83 | 1014.2 |
| 20260507072039 | 57 | 137 | 0.0 | 0.0 | 0.00 | 4.84 | 0.00 | 85 | 1014.2 |
| 20260507071539 | 57 | 137 | 0.0 | 0.0 | 0.00 | 4.84 | 0.00 | 85 | 1014.2 |
| 20260507071057 | 57 | 138 | 0.0 | 0.0 | 0.00 | 4.84 | 0.00 | 85 | 1014.1 |
| 20260507070540 | 57 | 159 | 0.0 | 0.0 | 0.00 | 4.84 | 0.00 | 87 | 1014.1 |
| 20260507070058 | 57 | 159 | 0.0 | 0.0 | 0.00 | 4.84 | 0.00 | 88 | 1014.0 |
| 20260507065533 | 57 | 160 | 0.0 | 1.0 | 0.00 | 6.85 | 0.00 | 87 | 1013.9 |
| 20260507065038 | 57 | 354 | 0.0 | 1.0 | 0.00 | 6.85 | 0.00 | 87 | 1013.9 |
| 20260507064542 | 57 | 347 | 0.0 | 0.0 | 0.00 | 6.85 | 0.00 | 88 | 1014.0 |
| 20260507064030 | 56 | 347 | 0.0 | 0.0 | 0.00 | 6.85 | 0.00 | 89 | 1013.9 |
| 20260507063534 | 56 | 347 | 0.0 | 0.0 | 0.00 | 6.85 | 0.00 | 90 | 1013.9 |
| 20260507063106 | 56 | 347 | 0.0 | 0.0 | 0.00 | 6.85 | 0.00 | 90 | 1013.9 |
| 20260507062550 | 56 | 347 | 0.0 | 0.0 | 0.00 | 6.85 | 0.00 | 91 | 1013.9 |
| 20260507062107 | 55 | 347 | 0.0 | 0.0 | 0.00 | 6.85 | 0.00 | 92 | 1013.9 |
| 20260507061610 | 55 | 347 | 0.0 | 0.0 | 0.00 | 6.85 | 0.00 | 92 | 1013.8 |
| 20260507061107 | 55 | 347 | 0.0 | 0.0 | 0.00 | 6.85 | 0.00 | 93 | 1013.8 |
| 20260507060550 | 54 | 347 | 0.0 | 0.0 | 0.00 | 6.85 | 0.00 | 93 | 1013.8 |
| 20260507055545 | 54 | 347 | 0.0 | 0.0 | 0.00 | 6.97 | 0.00 | 93 | 1013.7 |
| 20260507055035 | 54 | 347 | 0.0 | 0.0 | 0.00 | 6.97 | 0.00 | 94 | 1013.7 |
| 20260507054539 | 53 | 347 | 0.0 | 0.0 | 0.00 | 6.97 | 0.00 | 94 | 1013.6 |
| 20260507054058 | 53 | 347 | 0.0 | 0.0 | 0.00 | 6.97 | 0.00 | 95 | 1013.6 |
| 20260507053533 | 53 | 347 | 0.0 | 0.0 | 0.00 | 6.97 | 0.00 | 95 | 1013.5 |
| 20260507053109 | 52 | 347 | 0.0 | 0.0 | 0.00 | 6.97 | 0.00 | 95 | 1013.4 |
| 20260507052609 | 52 | 347 | 0.0 | 0.0 | 0.00 | 6.97 | 0.00 | 95 | 1013.3 |
| 20260507052035 | 52 | 347 | 0.0 | 0.0 | 0.00 | 6.97 | 0.00 | 95 | 1013.3 |
| 20260507051538 | 51 | 347 | 0.0 | 0.0 | 0.00 | 6.97 | 0.00 | 95 | 1013.3 |
| 20260507051049 | 51 | 347 | 0.0 | 0.0 | 0.00 | 6.97 | 0.00 | 95 | 1013.2 |
| 20260507050551 | 51 | 347 | 0.0 | 0.0 | 0.00 | 6.97 | 0.00 | 95 | 1013.2 |
| 20260507050045 | 51 | 347 | 0.0 | 0.0 | 0.00 | 6.97 | 0.00 | 95 | 1013.0 |
| 20260507045546 | 51 | 347 | 0.0 | 0.0 | 0.00 | 7.40 | 0.00 | 95 | 1012.9 |
| 20260507045057 | 50 | 347 | 0.0 | 0.0 | 0.00 | 7.40 | 0.00 | 95 | 1012.9 |
| 20260507044531 | 50 | 347 | 0.0 | 0.0 | 0.00 | 7.40 | 0.00 | 95 | 1012.9 |
| 20260507044105 | 50 | 347 | 0.0 | 0.0 | 0.00 | 7.40 | 0.00 | 95 | 1012.8 |
| 20260507043608 | 50 | 347 | 0.0 | 0.0 | 0.00 | 7.40 | 0.00 | 95 | 1012.7 |
| 20260507043106 | 50 | 347 | 0.0 | 0.0 | 0.00 | 7.40 | 0.00 | 95 | 1012.7 |
| 20260507042607 | 50 | 347 | 0.0 | 0.0 | 0.00 | 7.40 | 0.00 | 95 | 1012.6 |
| 20260507042043 | 50 | 347 | 0.0 | 0.0 | 0.00 | 7.40 | 0.00 | 95 | 1012.5 |
| 20260507041548 | 50 | 347 | 0.0 | 0.0 | 0.00 | 7.40 | 0.00 | 95 | 1012.5 |
| 20260507041039 | 50 | 347 | 0.0 | 0.0 | 0.00 | 7.40 | 0.00 | 94 | 1012.5 |
| 20260507040600 | 51 | 347 | 0.0 | 0.0 | 0.00 | 7.40 | 0.00 | 94 | 1012.5 |
| 20260507040058 | 51 | 347 | 0.0 | 0.0 | 0.00 | 7.40 | 0.00 | 94 | 1012.6 |
| 20260507035531 | 51 | 347 | 0.0 | 0.0 | 0.00 | 7.48 | 0.00 | 94 | 1012.5 |
| 20260507035042 | 51 | 347 | 0.0 | 0.0 | 0.00 | 7.48 | 0.00 | 94 | 1012.5 |
| 20260507034544 | 51 | 347 | 0.0 | 0.0 | 0.00 | 7.48 | 0.00 | 94 | 1012.4 |
| 20260507034035 | 51 | 347 | 0.0 | 0.0 | 0.00 | 7.48 | 0.00 | 94 | 1012.4 |
| 20260507033541 | 51 | 347 | 0.0 | 0.0 | 0.00 | 7.48 | 0.00 | 94 | 1012.3 |
| 20260507033118 | 51 | 347 | 0.0 | 0.0 | 0.00 | 7.48 | 0.00 | 94 | 1012.3 |
| 20260507032533 | 51 | 347 | 0.0 | 0.0 | 0.00 | 7.48 | 0.00 | 94 | 1012.3 |
| 20260507032038 | 51 | 347 | 0.0 | 0.0 | 0.00 | 7.48 | 0.00 | 94 | 1012.3 |
| 20260507031603 | 51 | 347 | 0.0 | 0.0 | 0.00 | 7.48 | 0.00 | 94 | 1012.3 |
| 20260507031034 | 51 | 347 | 0.0 | 0.0 | 0.00 | 7.48 | 0.00 | 94 | 1012.3 |
| 20260507030538 | 51 | 347 | 0.0 | 0.0 | 0.00 | 7.48 | 0.00 | 94 | 1012.4 |
| 20260507030035 | 51 | 347 | 0.0 | 0.0 | 0.00 | 7.48 | 0.00 | 94 | 1012.3 |
| 20260507025542 | 51 | 347 | 0.0 | 0.0 | 0.00 | 7.48 | 0.00 | 94 | 1012.4 |
| 20260507025032 | 51 | 347 | 0.0 | 0.0 | 0.00 | 7.48 | 0.00 | 94 | 1012.4 |
| 20260507024538 | 51 | 347 | 0.0 | 0.0 | 0.00 | 7.48 | 0.00 | 94 | 1012.3 |
| 20260507024043 | 52 | 347 | 0.0 | 0.0 | 0.00 | 7.48 | 0.00 | 94 | 1012.4 |
| 20260507023550 | 52 | 347 | 0.0 | 0.0 | 0.00 | 7.48 | 0.00 | 93 | 1012.4 |
| 20260507023039 | 52 | 347 | 0.0 | 0.0 | 0.00 | 7.48 | 0.00 | 93 | 1012.3 |
| 20260507022541 | 52 | 347 | 0.0 | 0.0 | 0.00 | 7.48 | 0.00 | 93 | 1012.3 |
| 20260507022055 | 52 | 347 | 0.0 | 0.0 | 0.00 | 7.48 | 0.00 | 93 | 1012.3 |
| 20260507021531 | 52 | 347 | 0.0 | 0.0 | 0.00 | 7.48 | 0.00 | 93 | 1012.3 |
| 20260507021042 | 52 | 347 | 0.0 | 0.0 | 0.00 | 7.48 | 0.00 | 93 | 1012.3 |
| 20260507020544 | 53 | 347 | 0.0 | 0.0 | 0.00 | 7.48 | 0.00 | 93 | 1012.3 |
| 20260507020037 | 53 | 347 | 0.0 | 0.0 | 0.00 | 7.48 | 0.00 | 93 | 1012.3 |
| 20260507015538 | 53 | 347 | 0.0 | 0.0 | 0.00 | 7.56 | 0.00 | 93 | 1012.3 |
| 20260507015031 | 53 | 347 | 0.0 | 0.0 | 0.00 | 7.56 | 0.00 | 93 | 1012.3 |
| 20260507014551 | 53 | 347 | 0.0 | 0.0 | 0.00 | 7.56 | 0.00 | 94 | 1012.2 |
| 20260507014036 | 53 | 347 | 0.0 | 0.0 | 0.00 | 7.56 | 0.00 | 94 | 1012.2 |
| 20260507013542 | 53 | 347 | 0.0 | 0.0 | 0.00 | 7.56 | 0.00 | 94 | 1012.2 |
| 20260507013031 | 53 | 347 | 0.0 | 0.0 | 0.00 | 7.56 | 0.00 | 94 | 1012.2 |
| 20260507012535 | 53 | 347 | 0.0 | 0.0 | 0.00 | 7.56 | 0.00 | 94 | 1012.2 |
| 20260507012041 | 53 | 347 | 0.0 | 0.0 | 0.00 | 7.56 | 0.00 | 94 | 1012.2 |
| 20260507011545 | 53 | 347 | 0.0 | 0.0 | 0.00 | 7.56 | 0.00 | 94 | 1012.3 |
| 20260507010533 | 53 | 347 | 0.0 | 0.0 | 0.00 | 7.56 | 0.00 | 94 | 1012.3 |
| 20260507010039 | 53 | 347 | 0.0 | 0.0 | 0.00 | 7.56 | 0.00 | 94 | 1012.2 |
| 20260507005542 | 53 | 347 | 0.0 | 0.0 | 0.00 | 7.60 | 0.00 | 94 | 1012.2 |
| 20260507005032 | 53 | 347 | 0.0 | 0.0 | 0.00 | 7.60 | 0.00 | 94 | 1012.2 |
| 20260507004557 | 52 | 347 | 0.0 | 0.0 | 0.00 | 7.60 | 0.00 | 94 | 1012.2 |
| 20260507004056 | 52 | 347 | 0.0 | 0.0 | 0.00 | 7.60 | 0.00 | 94 | 1012.2 |
| 20260507003533 | 52 | 347 | 0.0 | 0.0 | 0.00 | 7.60 | 0.00 | 94 | 1012.2 |
| 20260507003044 | 52 | 347 | 0.0 | 0.0 | 0.00 | 7.60 | 0.00 | 94 | 1012.2 |
| 20260507002547 | 52 | 347 | 0.0 | 0.0 | 0.00 | 7.60 | 0.00 | 95 | 1012.2 |
| 20260507002040 | 52 | 347 | 0.0 | 0.0 | 0.00 | 7.60 | 0.00 | 95 | 1012.1 |
| 20260507001540 | 52 | 347 | 0.0 | 0.0 | 0.00 | 7.60 | 0.00 | 95 | 1012.1 |
| 20260507001037 | 52 | 347 | 0.0 | 0.0 | 0.00 | 7.60 | 0.00 | 95 | 1012.0 |
| 20260507000542 | 52 | 347 | 0.0 | 0.0 | 0.00 | 7.60 | 0.00 | 95 | 1012.0 |
| 20260507000034 | 52 | 347 | 0.0 | 0.0 | 0.00 | 7.60 | 0.00 | 94 | 1012.0 |
| 20260506235538 | 52 | 347 | 0.0 | 0.0 | 0.00 | 7.60 | 0.00 | 94 | 1012.0 |
| 20260506235118 | 52 | 347 | 0.0 | 0.0 | 0.00 | 7.60 | 0.00 | 94 | 1011.9 |
| 20260506234532 | 52 | 347 | 0.0 | 0.0 | 0.00 | 7.60 | 0.00 | 94 | 1011.9 |
| 20260506234040 | 53 | 347 | 0.0 | 0.0 | 0.00 | 7.60 | 0.00 | 94 | 1011.8 |
| 20260506233536 | 53 | 347 | 0.0 | 0.0 | 0.00 | 7.60 | 0.00 | 94 | 1011.8 |
| 20260506233049 | 53 | 347 | 0.0 | 0.0 | 0.00 | 7.60 | 0.00 | 94 | 1011.8 |
| 20260506232532 | 53 | 347 | 0.0 | 0.0 | 0.00 | 7.60 | 0.00 | 94 | 1011.8 |
| 20260506232042 | 53 | 347 | 0.0 | 0.0 | 0.00 | 7.60 | 0.00 | 93 | 1011.7 |
| 20260506231544 | 53 | 347 | 0.0 | 0.0 | 0.00 | 7.60 | 0.00 | 93 | 1011.7 |
| 20260506231042 | 54 | 347 | 0.0 | 0.0 | 0.00 | 7.60 | 0.00 | 93 | 1011.7 |
| 20260506230548 | 54 | 347 | 0.0 | 0.0 | 0.00 | 7.60 | 0.00 | 93 | 1011.7 |
| 20260506230038 | 54 | 347 | 0.0 | 0.0 | 0.00 | 7.60 | 0.00 | 93 | 1011.6 |
| 20260506225542 | 54 | 347 | 0.0 | 0.0 | 0.04 | 7.60 | 0.00 | 92 | 1011.5 |
| 20260506225059 | 55 | 347 | 0.0 | 0.0 | 0.04 | 7.60 | 0.00 | 92 | 1011.6 |
| 20260506224541 | 55 | 347 | 0.0 | 0.0 | 0.04 | 7.60 | 0.00 | 92 | 1011.5 |
| 20260506224033 | 55 | 347 | 0.0 | 0.0 | 0.04 | 7.60 | 0.00 | 92 | 1011.5 |
| 20260506223538 | 55 | 347 | 0.0 | 0.0 | 0.04 | 7.60 | 0.00 | 92 | 1011.4 |
| 20260506223030 | 56 | 347 | 0.0 | 0.0 | 0.04 | 7.60 | 0.00 | 92 | 1011.4 |
| 20260506222534 | 55 | 347 | 0.0 | 0.0 | 0.04 | 7.60 | 0.00 | 92 | 1011.4 |
| 20260506222045 | 55 | 347 | 0.0 | 0.0 | 0.04 | 7.60 | 0.00 | 92 | 1011.3 |
| 20260506221546 | 55 | 347 | 0.0 | 0.0 | 0.04 | 7.60 | 0.00 | 92 | 1011.3 |
| 20260506221035 | 55 | 347 | 0.0 | 0.0 | 0.04 | 7.60 | 0.00 | 93 | 1011.4 |
| 20260506220537 | 56 | 347 | 0.0 | 0.0 | 0.04 | 7.60 | 0.00 | 93 | 1011.7 |
| 20260506220047 | 56 | 347 | 0.0 | 0.0 | 0.04 | 7.60 | 0.00 | 93 | 1011.7 |
| 20260506215543 | 56 | 347 | 0.0 | 0.0 | 0.00 | 7.56 | 1.51 | 93 | 1011.7 |
| 20260506215034 | 56 | 347 | 0.0 | 0.0 | 0.00 | 7.56 | 1.51 | 93 | 1011.6 |
| 20260506214540 | 56 | 347 | 0.0 | 0.0 | 0.00 | 7.56 | 1.51 | 93 | 1011.6 |
| 20260506214038 | 55 | 347 | 0.0 | 0.0 | 0.00 | 7.56 | 1.51 | 93 | 1011.7 |
| 20260506213544 | 55 | 354 | 0.0 | 0.0 | 0.00 | 7.56 | 1.51 | 94 | 1011.6 |
| 20260506213043 | 55 | 354 | 0.0 | 0.0 | 0.00 | 7.56 | 1.51 | 94 | 1011.6 |
| 20260506212544 | 55 | 354 | 0.0 | 0.0 | 0.00 | 7.56 | 1.51 | 94 | 1011.6 |
| 20260506212104 | 55 | 354 | 0.0 | 0.0 | 0.00 | 7.56 | 1.51 | 93 | 1011.5 |
| 20260506211548 | 55 | 354 | 0.0 | 0.0 | 0.00 | 7.56 | 1.51 | 93 | 1011.3 |
| 20260506211036 | 55 | 354 | 0.0 | 0.0 | 0.00 | 7.56 | 1.51 | 93 | 1011.3 |
| 20260506210541 | 55 | 354 | 0.0 | 0.0 | 0.00 | 7.56 | 1.51 | 93 | 1011.3 |
| 20260506210104 | 55 | 354 | 0.0 | 0.0 | 0.00 | 7.56 | 1.51 | 93 | 1011.3 |
| 20260506205542 | 56 | 354 | 0.0 | 0.0 | 0.00 | 7.56 | 1.51 | 93 | 1011.3 |
| 20260506205035 | 56 | 354 | 0.0 | 0.0 | 0.00 | 7.56 | 1.51 | 93 | 1011.2 |
| 20260506204700 | 56 | 354 | 0.0 | 0.0 | 0.00 | 7.56 | 1.51 | 92 | 1011.1 |
| 20260506204035 | 56 | 354 | 0.0 | 0.0 | 0.00 | 7.56 | 1.51 | 92 | 1011.1 |
| 20260506203554 | 56 | 354 | 0.0 | 0.0 | 0.00 | 7.56 | 1.51 | 92 | 1011.1 |
| 20260506203047 | 56 | 354 | 0.0 | 0.0 | 0.00 | 7.56 | 1.51 | 92 | 1011.0 |
| 20260506202610 | 56 | 354 | 0.0 | 0.0 | 0.00 | 7.56 | 1.51 | 91 | 1011.0 |
| 20260506202104 | 56 | 354 | 0.0 | 0.0 | 0.00 | 7.56 | 1.51 | 91 | 1010.9 |
| 20260506201547 | 56 | 354 | 0.0 | 0.0 | 0.00 | 7.56 | 1.51 | 92 | 1010.9 |
| 20260506201039 | 56 | 354 | 0.0 | 0.0 | 0.00 | 7.56 | 1.51 | 92 | 1010.8 |
| 20260506200534 | 56 | 354 | 0.0 | 0.0 | 0.00 | 7.56 | 1.51 | 92 | 1010.7 |
| 20260506200108 | 56 | 354 | 0.0 | 0.0 | 0.00 | 7.56 | 1.51 | 92 | 1010.7 |
| 20260506195541 | 56 | 354 | 0.0 | 0.0 | 0.00 | 7.56 | 1.51 | 92 | 1010.6 |
| 20260506195032 | 56 | 354 | 0.0 | 0.0 | 0.00 | 7.56 | 1.51 | 92 | 1010.5 |
| 20260506194534 | 56 | 354 | 0.0 | 0.0 | 0.00 | 7.56 | 1.51 | 92 | 1010.4 |
| 20260506194043 | 56 | 354 | 0.0 | 0.0 | 0.00 | 7.56 | 1.51 | 91 | 1010.4 |
| 20260506193549 | 56 | 354 | 0.0 | 0.0 | 0.00 | 7.56 | 1.51 | 91 | 1010.3 |
| 20260506193038 | 56 | 354 | 0.0 | 0.0 | 0.00 | 7.56 | 1.51 | 91 | 1010.2 |
| 20260506192543 | 56 | 354 | 0.0 | 0.0 | 0.00 | 7.56 | 1.51 | 91 | 1010.1 |
| 20260506192033 | 57 | 354 | 0.0 | 0.0 | 0.00 | 7.56 | 1.51 | 91 | 1010.1 |
| 20260506191535 | 57 | 354 | 0.0 | 0.0 | 0.00 | 7.56 | 1.51 | 90 | 1009.8 |
| 20260506191040 | 57 | 354 | 0.0 | 0.0 | 0.00 | 7.56 | 1.51 | 89 | 1009.8 |
| 20260506190541 | 57 | 354 | 0.0 | 0.0 | 0.00 | 7.56 | 1.51 | 88 | 1009.7 |
| 20260506185603 | 58 | 354 | 0.0 | 0.0 | 0.00 | 7.56 | 1.51 | 87 | 1009.6 |
| 20260506185035 | 58 | 354 | 0.0 | 0.0 | 0.00 | 7.56 | 1.51 | 87 | 1009.4 |
| 20260506184540 | 59 | 354 | 0.0 | 0.0 | 0.00 | 7.56 | 1.51 | 85 | 1009.4 |
| 20260506184052 | 59 | 354 | 0.0 | 0.0 | 0.00 | 7.56 | 1.51 | 84 | 1009.2 |
| 20260506183548 | 59 | 354 | 0.0 | 0.0 | 0.00 | 7.56 | 1.51 | 82 | 1009.2 |
| 20260506183040 | 59 | 354 | 0.0 | 0.0 | 0.00 | 7.56 | 1.51 | 82 | 1009.0 |
| 20260506182541 | 60 | 354 | 0.0 | 4.0 | 0.00 | 7.56 | 1.51 | 81 | 1008.9 |
| 20260506182033 | 60 | 354 | 0.0 | 5.0 | 0.00 | 7.56 | 1.51 | 81 | 1008.9 |
| 20260506181536 | 60 | 354 | 1.0 | 5.0 | 0.00 | 7.56 | 1.51 | 80 | 1008.9 |
| 20260506181057 | 60 | 354 | 2.0 | 8.0 | 0.00 | 7.56 | 1.51 | 80 | 1008.8 |
| 20260506180532 | 60 | 354 | 4.0 | 10.0 | 0.00 | 7.56 | 1.51 | 81 | 1008.7 |
| 20260506180042 | 60 | 359 | 4.0 | 10.0 | 0.00 | 7.56 | 1.51 | 82 | 1008.5 |
| 20260506175544 | 60 | 53 | 1.0 | 6.0 | 0.04 | 7.68 | 1.51 | 83 | 1008.4 |
| 20260506175035 | 60 | 31 | 0.0 | 0.0 | 0.04 | 7.68 | 1.51 | 83 | 1008.3 |
| 20260506174542 | 60 | 4 | 0.0 | 8.0 | 0.04 | 7.68 | 1.51 | 83 | 1008.2 |
| 20260506174102 | 60 | 4 | 4.0 | 8.0 | 0.04 | 7.68 | 1.51 | 83 | 1008.2 |
| 20260506173533 | 60 | 43 | 1.0 | 7.0 | 0.04 | 7.68 | 1.51 | 83 | 1008.2 |
| 20260506173046 | 61 | 359 | 2.0 | 6.0 | 0.04 | 7.68 | 1.51 | 83 | 1008.1 |
| 20260506172550 | 61 | 77 | 3.0 | 10.0 | 0.04 | 7.68 | 1.51 | 82 | 1008.2 |
| 20260506172043 | 61 | 77 | 2.0 | 11.0 | 0.04 | 7.68 | 1.51 | 82 | 1008.1 |
| 20260506171549 | 61 | 16 | 5.0 | 11.0 | 0.04 | 7.68 | 1.51 | 82 | 1008.1 |
| 20260506171042 | 61 | 16 | 3.0 | 12.0 | 0.04 | 7.68 | 1.51 | 83 | 1008.0 |
| 20260506170547 | 61 | 69 | 5.0 | 18.0 | 0.04 | 7.68 | 1.51 | 82 | 1008.0 |
| 20260506170106 | 62 | 106 | 10.0 | 18.0 | 0.04 | 7.68 | 1.51 | 81 | 1007.8 |
| 20260506165550 | 62 | 307 | 0.0 | 0.0 | 0.00 | 7.64 | 1.50 | 80 | 1007.5 |
| 20260506165038 | 63 | 307 | 0.0 | 0.0 | 0.00 | 7.64 | 1.50 | 80 | 1007.2 |
| 20260506164543 | 63 | 307 | 0.0 | 0.0 | 0.00 | 7.64 | 1.50 | 81 | 1007.1 |
| 20260506164054 | 63 | 307 | 0.0 | 0.0 | 0.00 | 7.64 | 1.50 | 81 | 1007.0 |
| 20260506163532 | 63 | 307 | 0.0 | 0.0 | 0.00 | 7.64 | 1.50 | 82 | 1007.0 |
| 20260506163051 | 62 | 299 | 0.0 | 0.0 | 0.00 | 7.64 | 1.50 | 82 | 1007.0 |
| 20260506162549 | 62 | 133 | 0.0 | 0.0 | 0.00 | 7.64 | 1.50 | 81 | 1007.0 |
| 20260506162104 | 62 | 128 | 0.0 | 0.0 | 0.00 | 7.64 | 1.50 | 81 | 1006.9 |
| 20260506161548 | 62 | 141 | 0.0 | 0.0 | 0.00 | 7.64 | 1.50 | 80 | 1006.8 |
| 20260506161040 | 63 | 340 | 0.0 | 3.0 | 0.00 | 7.64 | 1.50 | 83 | 1006.7 |
| 20260506160541 | 63 | 340 | 0.0 | 4.0 | 0.00 | 7.64 | 1.50 | 81 | 1006.6 |
| 20260506160039 | 63 | 340 | 1.0 | 11.0 | 0.04 | 7.64 | 1.50 | 80 | 1006.5 |
| 20260506155542 | 62 | 339 | 5.0 | 11.0 | 0.08 | 7.64 | 1.50 | 77 | 1006.5 |
| 20260506155038 | 61 | 324 | 2.0 | 9.0 | 0.12 | 7.64 | 1.50 | 80 | 1006.6 |
| 20260506154542 | 61 | 328 | 6.0 | 13.0 | 0.20 | 7.64 | 1.50 | 82 | 1006.7 |
| 20260506154100 | 60 | 334 | 9.0 | 13.0 | 0.24 | 7.64 | 1.50 | 82 | 1006.8 |
| 20260506153532 | 59 | 324 | 2.0 | 5.0 | 0.35 | 7.64 | 1.50 | 80 | 1007.1 |
| 20260506153044 | 59 | 328 | 1.0 | 5.0 | 1.14 | 7.64 | 1.50 | 82 | 1007.3 |
| 20260506152604 | 59 | 341 | 2.0 | 11.0 | 2.20 | 7.64 | 1.50 | 84 | 1007.4 |
| 20260506152033 | 59 | 349 | 4.0 | 11.0 | 2.28 | 7.64 | 1.50 | 84 | 1007.5 |
| 20260506151539 | 58 | 343 | 4.0 | 8.0 | 2.28 | 7.64 | 1.50 | 87 | 1007.4 |
| 20260506151035 | 58 | 327 | 2.0 | 8.0 | 2.28 | 7.64 | 1.50 | 87 | 1007.6 |
| 20260506150539 | 58 | 327 | 5.0 | 9.0 | 2.28 | 7.64 | 1.50 | 86 | 1007.7 |
| 20260506150033 | 58 | 334 | 6.0 | 9.0 | 2.24 | 7.60 | 1.50 | 86 | 1007.8 |
| 20260506145539 | 58 | 337 | 7.0 | 9.0 | 2.20 | 7.56 | 1.49 | 86 | 1007.8 |
| 20260506145032 | 57 | 345 | 5.0 | 6.0 | 2.17 | 7.52 | 1.48 | 86 | 1007.8 |
| 20260506144537 | 57 | 347 | 4.0 | 9.0 | 2.09 | 7.44 | 1.46 | 84 | 1007.8 |
| 20260506144039 | 57 | 330 | 1.0 | 10.0 | 2.01 | 7.36 | 1.45 | 80 | 1007.7 |
| 20260506143544 | 57 | 103 | 5.0 | 19.0 | 1.89 | 7.24 | 1.43 | 78 | 1007.9 |
| 20260506143036 | 60 | 310 | 9.0 | 19.0 | 1.02 | 6.38 | 1.25 | 77 | 1008.2 |
| 20260506142541 | 64 | 310 | 5.0 | 9.0 | 0.04 | 5.39 | 1.06 | 76 | 1007.7 |
| 20260506142032 | 65 | 337 | 0.0 | 0.0 | 0.00 | 5.35 | 1.05 | 71 | 1007.6 |
| 20260506141537 | 66 | 162 | 0.0 | 0.0 | 0.00 | 5.35 | 1.05 | 71 | 1007.6 |
| 20260506141104 | 66 | 162 | 0.0 | 0.0 | 0.00 | 5.35 | 1.05 | 65 | 1007.5 |
| 20260506140548 | 66 | 162 | 0.0 | 0.0 | 0.00 | 5.35 | 1.05 | 65 | 1007.5 |
| 20260506140037 | 66 | 162 | 0.0 | 0.0 | 0.00 | 5.35 | 1.05 | 65 | 1007.6 |
| 20260506135557 | 65 | 162 | 0.0 | 0.0 | 0.00 | 5.35 | 1.05 | 64 | 1007.5 |
| 20260506135043 | 65 | 162 | 0.0 | 0.0 | 0.00 | 5.35 | 1.05 | 65 | 1007.5 |
| 20260506134536 | 65 | 162 | 0.0 | 2.0 | 0.00 | 5.35 | 1.05 | 68 | 1007.6 |
| 20260506134057 | 65 | 173 | 0.0 | 7.0 | 0.00 | 5.35 | 1.05 | 66 | 1007.7 |
| 20260506133533 | 65 | 147 | 2.0 | 7.0 | 0.00 | 5.35 | 1.05 | 69 | 1007.6 |
| 20260506133047 | 65 | 158 | 1.0 | 9.0 | 0.00 | 5.35 | 1.05 | 68 | 1007.5 |
| 20260506132607 | 65 | 167 | 2.0 | 9.0 | 0.00 | 5.35 | 1.05 | 65 | 1007.7 |
| 20260506132106 | 65 | 122 | 3.0 | 7.0 | 0.00 | 5.35 | 1.05 | 65 | 1007.7 |
| 20260506131540 | 65 | 152 | 0.0 | 4.0 | 0.00 | 5.35 | 1.05 | 69 | 1007.8 |
| 20260506131057 | 65 | 113 | 1.0 | 8.0 | 0.00 | 5.35 | 1.05 | 66 | 1007.8 |
| 20260506130532 | 65 | 86 | 2.0 | 8.0 | 0.00 | 5.35 | 1.05 | 69 | 1007.8 |
| 20260506130040 | 65 | 123 | 0.0 | 7.0 | 0.00 | 5.35 | 1.05 | 70 | 1007.8 |
| 20260506125541 | 64 | 134 | 0.0 | 8.0 | 0.00 | 5.35 | 1.05 | 71 | 1007.9 |
| 20260506125054 | 65 | 152 | 4.0 | 8.0 | 0.00 | 5.35 | 1.05 | 68 | 1007.9 |
| 20260506124531 | 65 | 85 | 0.0 | 7.0 | 0.00 | 5.35 | 1.05 | 69 | 1007.9 |
| 20260506124041 | 64 | 146 | 1.0 | 7.0 | 0.00 | 5.35 | 1.05 | 71 | 1008.0 |
| 20260506123546 | 64 | 117 | 1.0 | 8.0 | 0.00 | 5.35 | 1.05 | 70 | 1008.0 |
| 20260506123037 | 65 | 105 | 1.0 | 7.0 | 0.00 | 5.35 | 1.05 | 70 | 1008.0 |
| 20260506122556 | 64 | 345 | 0.0 | 6.0 | 0.00 | 5.35 | 1.05 | 73 | 1008.0 |
| 20260506122043 | 64 | 125 | 1.0 | 6.0 | 0.00 | 5.35 | 1.05 | 69 | 1008.0 |
| 20260506121547 | 64 | 33 | 0.0 | 9.0 | 0.00 | 5.35 | 1.05 | 73 | 1008.0 |
| 20260506121034 | 63 | 79 | 1.0 | 9.0 | 0.00 | 5.35 | 1.05 | 76 | 1008.0 |
| 20260506120536 | 63 | 53 | 0.0 | 6.0 | 0.00 | 5.35 | 1.05 | 76 | 1008.1 |
| 20260506120041 | 63 | 142 | 0.0 | 8.0 | 0.00 | 5.35 | 1.05 | 77 | 1008.1 |
| 20260506115605 | 63 | 129 | 0.0 | 4.0 | 0.00 | 5.35 | 1.05 | 79 | 1008.0 |
| 20260506115059 | 63 | 128 | 1.0 | 4.0 | 0.00 | 5.35 | 1.05 | 80 | 1008.1 |
| 20260506114534 | 63 | 115 | 1.0 | 4.0 | 0.00 | 5.35 | 1.05 | 82 | 1008.1 |
| 20260506114044 | 62 | 113 | 0.0 | 3.0 | 0.00 | 5.35 | 1.05 | 84 | 1008.1 |
| 20260506113547 | 61 | 115 | 0.0 | 0.0 | 0.00 | 5.35 | 1.05 | 84 | 1008.0 |
| 20260506113035 | 61 | 116 | 0.0 | 2.0 | 0.00 | 5.35 | 1.05 | 84 | 1008.1 |
| 20260506112541 | 60 | 116 | 0.0 | 5.0 | 0.00 | 5.35 | 1.05 | 86 | 1008.0 |
| 20260506112100 | 60 | 116 | 1.0 | 5.0 | 0.00 | 5.35 | 1.05 | 85 | 1008.1 |
| 20260506111542 | 61 | 191 | 1.0 | 4.0 | 0.00 | 5.35 | 1.05 | 88 | 1008.0 |
| 20260506111031 | 60 | 131 | 2.0 | 4.0 | 0.00 | 5.35 | 1.05 | 88 | 1008.1 |
| 20260506110554 | 59 | 132 | 0.0 | 5.0 | 0.00 | 5.35 | 1.05 | 90 | 1008.1 |
| 20260506110036 | 59 | 147 | 2.0 | 5.0 | 0.00 | 5.35 | 1.05 | 89 | 1008.2 |
| 20260506105540 | 59 | 85 | 0.0 | 4.0 | 0.00 | 5.35 | 1.05 | 91 | 1008.3 |